Time,TemperatureF,DewpointF,PressureIn,WindDirection,WindDirectionDegrees,WindSpeedMPH,WindSpeedGustMPH,Humidity,HourlyPrecipIn,Conditions,Clouds,dailyrainin,SoftwareType,DateUTC
2013-01-29 00:00:00,19.0,-99.9,-100.00,North,-999,-999.0,-999.0,-999,-99.99,,,0.01,,2013-01-29 08:00:00,
2013-01-29 00:52:00,19.0,-99.9,-100.00,North,-999,-999.0,-999.0,-999,-99.99,,,0.01,,2013-01-29 08:52:00,
2013-01-29 02:00:00,19.0,-99.9,-100.00,WSW,246,3.0,6.0,-999,-99.99,,,0.01,,2013-01-29 10:00:00,
2013-01-29 02:52:00,19.0,-99.9,-100.00,WSW,246,3.0,6.0,-999,-99.99,,,0.01,,2013-01-29 10:52:00,
2013-01-29 03:00:00,19.0,-99.9,-100.00,WSW,251,2.0,6.0,-999,-99.99,,,0.01,,2013-01-29 11:00:00,
2013-01-29 03:53:00,19.0,-99.9,-100.00,WSW,251,2.0,6.0,-999,-99.99,,,0.01,,2013-01-29 11:53:00,
2013-01-29 04:00:00,19.0,-99.9,-100.00,NNW,348,2.0,5.0,-999,-99.99,,,0.01,,2013-01-29 12:00:00,
2013-01-29 04:53:00,19.0,-99.9,-100.00,NNW,348,2.0,5.0,-999,-99.99,,,0.01,,2013-01-29 12:53:00,
2013-01-29 05:00:00,21.0,-99.9,-100.00,NW,314,3.0,13.0,-999,-99.99,,,0.02,,2013-01-29 13:00:00,
2013-01-29 05:53:00,21.0,-99.9,-100.00,NW,314,3.0,13.0,-999,-99.99,,,0.02,,2013-01-29 13:53:00,
2013-01-29 06:00:00,22.0,-99.9,-100.00,NW,304,7.0,19.0,-999,-99.99,,,0.02,,2013-01-29 14:00:00,
2013-01-29 06:53:00,22.0,-99.9,-100.00,NW,304,7.0,19.0,-999,-99.99,,,0.02,,2013-01-29 14:53:00,
2013-01-29 07:00:00,22.0,-99.9,-100.00,WNW,299,10.0,18.0,-999,-99.99,,,0.02,,2013-01-29 15:00:00,
2013-01-29 07:53:00,22.0,-99.9,-100.00,WNW,299,10.0,18.0,-999,-99.99,,,0.02,,2013-01-29 15:53:00,
2013-01-29 08:00:00,22.0,-99.9,-100.00,WNW,291,9.0,19.0,-999,-99.99,,,0.03,,2013-01-29 16:00:00,
2013-01-29 08:53:00,22.0,-99.9,-100.00,WNW,291,9.0,19.0,-999,-99.99,,,0.03,,2013-01-29 16:53:00,
2013-01-29 09:00:00,23.0,-99.9,-100.00,WNW,282,9.0,19.0,-999,-99.99,,,0.03,,2013-01-29 17:00:00,
2013-01-29 09:53:00,23.0,-99.9,-100.00,WNW,282,9.0,19.0,-999,-99.99,,,0.03,,2013-01-29 17:53:00,
2013-01-29 10:00:00,25.0,-99.9,-100.00,WNW,288,7.0,19.0,-999,-99.99,,,0.03,,2013-01-29 18:00:00,
2013-01-29 10:52:00,25.0,-99.9,-100.00,WNW,288,7.0,19.0,-999,-99.99,,,0.03,,2013-01-29 18:52:00,
2013-01-29 11:00:00,25.0,-99.9,-100.00,WNW,284,7.0,16.0,-999,-99.99,,,0.03,,2013-01-29 19:00:00,
2013-01-29 11:52:00,25.0,-99.9,-100.00,WNW,284,7.0,16.0,-999,-99.99,,,0.03,,2013-01-29 19:52:00,
2013-01-29 12:00:00,25.0,-99.9,-100.00,WNW,283,7.0,16.0,-999,-99.99,,,0.03,,2013-01-29 20:00:00,
2013-01-29 12:54:00,25.0,-99.9,-100.00,WNW,283,7.0,16.0,-999,-99.99,,,0.03,,2013-01-29 20:54:00,
2013-01-29 13:00:00,26.0,-99.9,-100.00,WNW,299,9.0,21.0,-999,-99.99,,,0.02,,2013-01-29 21:00:00,
2013-01-29 13:53:00,26.0,-99.9,-100.00,WNW,299,9.0,21.0,-999,-99.99,,,0.02,,2013-01-29 21:53:00,
2013-01-29 16:00:00,23.0,-99.9,-100.00,WNW,287,6.0,19.0,-999,-99.99,,,0.03,,2013-01-30 00:00:00,
2013-01-29 16:53:00,23.0,-99.9,-100.00,WNW,287,6.0,19.0,-999,-99.99,,,0.03,,2013-01-30 00:53:00,
2013-01-29 17:00:00,23.0,-99.9,-100.00,SSW,204,6.0,17.0,-999,-99.99,,,0.02,,2013-01-30 01:00:00,
2013-01-29 17:52:00,23.0,-99.9,-100.00,SSW,204,6.0,17.0,-999,-99.99,,,0.02,,2013-01-30 01:52:00,
2013-01-29 19:00:00,24.0,-99.9,-100.00,North,-999,-999.0,-999.0,-999,-99.99,,,0.02,,2013-01-30 03:00:00,
2013-01-29 19:52:00,24.0,-99.9,-100.00,North,-999,-999.0,-999.0,-999,-99.99,,,0.02,,2013-01-30 03:52:00,
2013-01-29 20:00:00,23.0,-99.9,-100.00,SSW,192,5.0,10.0,-999,-99.99,,,0.02,,2013-01-30 04:00:00,
2013-01-29 20:52:00,23.0,-99.9,-100.00,SSW,192,5.0,10.0,-999,-99.99,,,0.02,,2013-01-30 04:52:00,
2013-01-29 21:00:00,23.0,-99.9,-100.00,SW,214,7.0,10.0,-999,-99.99,,,0.03,,2013-01-30 05:00:00,
2013-01-29 21:52:00,23.0,-99.9,-100.00,SW,214,7.0,10.0,-999,-99.99,,,0.03,,2013-01-30 05:52:00,
2013-01-29 22:00:00,23.0,-99.9,-100.00,SW,215,7.0,15.0,-999,-99.99,,,0.03,,2013-01-30 06:00:00,
2013-01-29 22:52:00,23.0,-99.9,-100.00,SW,215,7.0,15.0,-999,-99.99,,,0.03,,2013-01-30 06:52:00,
2013-01-29 23:00:00,24.0,-99.9,-100.00,SW,231,6.0,11.0,-999,-99.99,,,0.04,,2013-01-30 07:00:00,
2013-01-29 23:52:00,24.0,-99.9,-100.00,SW,231,6.0,11.0,-999,-99.99,,,0.04,,2013-01-30 07:52:00,